Weather History for St. Johns, AZ

Change the Weather History Date:

Monday, February 13, 2012

  Actual Average (KSOW) Record (KSOW)
Temperature  
Mean Temperature 44 °F -  
Max Temperature 51 °F 47 °F 66 °F (2011)
Min Temperature 36 °F 28 °F 5 °F (2013)
Degree Days  
Heating Degree Days 22    
Moisture  
Dew Point 24 °F    
Average Humidity 50    
Maximum Humidity 70    
Minimum Humidity 32    
Precipitation  
Precipitation 0.00 in - - ()
Sea Level Pressure  
Sea Level Pressure 29.80 in    
Wind  
Wind Speed 13 mph (SW)    
Max Wind Speed 21 mph    
Max Gust Speed 30 mph    
Visibility 10 miles    
Events      
Averages and records for this station are not official NWS values.
T = Trace of Precipitation, MM = Missing Value Source: NWS Daily Summary

Daily Weather History Graph

Daily Weather History Graph

Search for Another Location

Airport:

Trip Planner

Search our weather history database for the weather conditions in past years. The results will help you decide how hot, cold, wet, or windy it might be!

Date:

Astronomy

Feb. 13, 2012 Rise Set
Actual Time 7:05 AM MST 5:58 PM MST
Civil Twilight 6:39 AM MST 6:24 PM MST
Nautical Twilight 6:09 AM MST 6:54 PM MST
Astronomical Twilight 5:40 AM MST 7:23 PM MST
Moon No Moon Rise 10:26 AM MST (2/13)
Length of Visible Light 11h 44m
Length of Day
10h 53m
Waning Gibbous, 61% of the Moon is Illuminated
Feb 13
Waning Gibbous
Feb 14
Last Quarter
Feb 21
New
Feb 29
First Quarter
Mar 8
Full

Hourly Weather History & Observations

Time (MST) Temp. Windchill Dew Point Humidity Pressure Visibility Wind Dir Wind Speed Gust Speed Precip Events Conditions
12:54 AM 37.9 °F 30.9 °F 26.1 °F 62% 29.81 in 10.0 mi WSW 10.4 mph - N/A   Mostly Cloudy
1:54 AM 37.0 °F 29.8 °F 26.1 °F 65% 29.82 in 10.0 mi SW 10.4 mph - N/A   Mostly Cloudy
2:54 AM 37.9 °F 30.5 °F 28.0 °F 68% 29.82 in 10.0 mi SW 11.5 mph - N/A   Overcast
3:54 AM 37.9 °F 28.5 °F 28.0 °F 68% 29.81 in 10.0 mi SW 17.3 mph 23.0 mph N/A   Overcast
4:54 AM 37.0 °F 28.9 °F 28.0 °F 70% 29.82 in 10.0 mi SW 12.7 mph - N/A   Overcast
5:54 AM 37.0 °F 28.1 °F 27.0 °F 67% 29.84 in 10.0 mi SW 15.0 mph 21.9 mph N/A   Overcast
6:54 AM 36.0 °F 26.7 °F 27.0 °F 70% 29.85 in 10.0 mi SW 15.0 mph - N/A   Partly Cloudy
7:54 AM 37.0 °F 27.7 °F 28.0 °F 70% 29.87 in 10.0 mi SW 16.1 mph - N/A   Scattered Clouds
8:54 AM 41.0 °F 33.5 °F 28.0 °F 60% 29.88 in 10.0 mi SW 13.8 mph 23.0 mph N/A   Mostly Cloudy
9:54 AM 45.0 °F 37.4 °F 26.1 °F 48% 29.86 in 10.0 mi SW 18.4 mph 24.2 mph N/A   Scattered Clouds
10:54 AM 46.0 °F 39.6 °F 25.0 °F 44% 29.85 in 10.0 mi SW 15.0 mph 25.3 mph N/A   Clear
11:54 AM 48.0 °F - 24.1 °F 39% 29.83 in 10.0 mi SW 16.1 mph 28.8 mph N/A   Overcast
12:54 PM 50.0 °F - 23.0 °F 35% 29.78 in 10.0 mi West 10.4 mph 20.7 mph N/A   Mostly Cloudy
1:54 PM 51.1 °F - 23.0 °F 33% 29.76 in 10.0 mi WSW 19.6 mph - N/A   Overcast
2:54 PM 50.0 °F - 21.9 °F 33% 29.74 in 10.0 mi WSW 16.1 mph 24.2 mph N/A   Overcast
3:54 PM 50.0 °F - 21.0 °F 32% 29.73 in 10.0 mi WSW 18.4 mph 23.0 mph N/A   Mostly Cloudy
4:54 PM 48.9 °F - 19.9 °F 32% 29.73 in 10.0 mi West 17.3 mph 20.7 mph N/A   Mostly Cloudy
5:54 PM 46.9 °F - 21.0 °F 36% 29.73 in 10.0 mi SW 20.7 mph 29.9 mph N/A   Overcast
6:54 PM 44.1 °F 39.5 °F 21.0 °F 40% 29.78 in 10.0 mi South 8.1 mph - N/A   Clear
7:54 PM 41.0 °F 36.4 °F 18.0 °F 40% 29.79 in 10.0 mi SW 6.9 mph - N/A   Clear
8:54 PM 41.0 °F 38.0 °F 19.9 °F 43% 29.77 in 10.0 mi South 4.6 mph - N/A   Clear
9:54 PM 43.0 °F 38.2 °F 21.9 °F 43% 29.76 in 10.0 mi ESE 8.1 mph 23.0 mph N/A   Partly Cloudy
10:54 PM 42.1 °F 35.7 °F 26.1 °F 53% 29.76 in 10.0 mi West 11.5 mph 21.9 mph N/A   Clear
11:54 PM 43.0 °F 35.1 °F 26.1 °F 51% 29.74 in 10.0 mi SSW 17.3 mph 29.9 mph N/A   Partly Cloudy